Regional Weather Roundup
Issued by NWS Upton, NY

Current Version | Previous Version | Graphics & Text | Print | Product List | Glossary Off
Versions: 1 2 3 4 5 6 7 8 9 10 11 12 13 14 15 16 17 18 19 20 21 22 23 24 25 26 27 28 29 30 31 32 33 34 35 36 37 38 39 40 41 42 43 44 45 46 47 48 49 50

000
ASUS41 KOKX 261318
RWROKX

REGIONAL WEATHER ROUNDUP
NATIONAL WEATHER SERVICE NEW YORK NY
900 AM EDT TUE MAY 26 2015

NOTE: "FAIR" INDICATES FEW OR NO CLOUDS BELOW 12,000 FEET WITH NO
SIGNIFICANT WEATHER AND/OR OBSTRUCTIONS TO VISIBILITY.

NYZ071-072-176-178-NJZ106-104-261400-
NEW YORK CITY METRO AREA


CITY           SKY/WX    TMP DP  RH WIND       PRES   REMARKS
CENTRAL PARK   SUNNY     71  58  63 MISG      30.25S
LAGUARDIA APRT MOSUNNY   73  58  59 SW10      30.22S
KENNEDY INTL   MOSUNNY   69  58  67 SW7       30.24F
NEWARK/LIBERTY MOSUNNY   74  59  59 SW12      30.23S
BRNX BOT. GARD   N/A     73  57  56 S7        30.24S
TETERBORO      SUNNY     73  58  59 SW14      30.21S
$$

NYZ177-179-078>081-261400-
LONG ISLAND NEW YORK

CITY           SKY/WX    TMP DP  RH WIND       PRES   REMARKS
FARMINGDALE    SUNNY     69  60  73 S10       30.24S
ISLIP          MOSUNNY   68  59  73 SW14      30.23S
SHIRLEY        SUNNY     68  59  73 S15       30.25S
WESTHAMPTON    MOSUNNY   66  59  78 SW10      30.26F
MONTAUK POINT    N/A     63  57  81 SW12G24   30.25S
$$

NYZ052-065-067-261400-
HUDSON VALLEY

CITY           SKY/WX    TMP DP  RH WIND       PRES   REMARKS
WHITE PLAINS   MOSUNNY   71  58  63 VRB7      30.22S
NEWBURGH       MOSUNNY   72  63  73 W14       30.21R
MONTGOMERY     PTSUNNY   72  62  71 SW9       30.18F
POUGHKEEPSIE   MOSUNNY   74  60  61 S10       30.17S
ALBANY         CLOUDY    73  60  63 S12       30.14R
$$

NJZ001-105-106-008-010-013-015-019>022-104-261400-
NEW JERSEY

CITY           SKY/WX    TMP DP  RH WIND       PRES   REMARKS
NEWARK/LIBERTY MOSUNNY   74  59  59 SW12      30.23S
TETERBORO      SUNNY     73  58  59 SW14      30.21S
CALDWELL       SUNNY     71  57  61 W8        30.22F
MORRISTOWN     SUNNY     73  59  60 SW8         N/A
SOMERVILLE     SUNNY     72  59  63 MISG      30.22R
SUSSEX         PTSUNNY   71  59  65 SW7       30.22S
ANDOVER          N/A     71  60  68 VRB7      30.21F
TRENTON        SUNNY     73  61  65 SW9       30.24R
MILLVILLE      SUNNY     73  63  70 SW8       30.26R
ATLANTIC CITY  SUNNY     74  62  66 SW12      30.26S
WRIGHTSTOWN    SUNNY     74  62  66 W13       30.22S
TOMS RIVER     SUNNY    N/A N/A N/A SW15      30.25S
BELMAR         SUNNY     73  57  56 SW6       30.25S
$$

PAZ047>061-062-071-261400-
EASTERN PENNSYLVANIA

CITY           SKY/WX    TMP DP  RH WIND       PRES   REMARKS
PHILADELPHIA   MOSUNNY   74  61  63 SW15      30.24S
ALLENTOWN      SUNNY     73  60  63 SW7       30.23R
SCRANTON       PTSUNNY   74  59  59 VRB3      30.21S
$$

CTZ002-004>006-009-010-012-RIZ004-006-007-MAZ004-011-015-261400-
SOUTHERN NEW ENGLAND
 IN CT

CITY           SKY/WX    TMP DP  RH WIND       PRES   REMARKS
BRADLEY INTL   PTSUNNY   72  56  57 S9        30.17S
HARTFORD       MOSUNNY   72  57  59 S14       30.18S
DANBURY        SUNNY     71  57  61 SW10      30.22S
WTRBRY/OXFORD  MOSUNNY   68  55  64 SW6       30.22F
BRIDGEPORT     SUNNY     66  57  72 SW10      30.21F
MERIDEN        SUNNY     70  57  63 S9        30.20F
NEW HAVEN      MOSUNNY   63  57  81 SW6       30.22S
CHESTER        FAIR      68  59  73 SW12G18   30.23S
GROTON         SUNNY     63  57  81 SW9       30.23S
WILLIMANTIC    SUNNY     72  58  61 SW9       30.20S

 IN RI

CITY           SKY/WX    TMP DP  RH WIND       PRES   REMARKS
PROVIDENCE     PTSUNNY   70  57  63 SW12G18   30.21R
BLOCK ISLAND   SUNNY     61  54  77 SW17      30.26R
WESTERLY       MOSUNNY   65  57  75 SW9       30.24S

 IN MA

CITY           SKY/WX    TMP DP  RH WIND       PRES   REMARKS
BOSTON         MOSUNNY   73  58  59 SW15G25   30.16R
WORCESTER      MOSUNNY   69  56  62 SW14G24   30.19R
WESTFIELD      SUNNY     69  56  62 S9        30.17
PROVINCETOWN   PTSUNNY   63  55  77 SW23G33   30.19S
NANTUCKET      PTSUNNY   63  56  78 SW18      30.27R
$$

ANZ330-335-338-340-345-350-353-355-261400-
COASTAL MARINE OBSERVATIONS


STATION/POSITION TIME  SKY/WX   TEMP    WIND        PRES    VSBY  WAVE
                                AIR SEA DIR/SP/G                  HT/PER
                 (UTC)          (F)     (DEG/KT/KT) (MB)    (MI)  (FT/S)
NY HARB ENTRANCE 1250            59 57  200/ 10/ 10 1024.0          3/ 5
4S FIRE IS       1203               54                N/A           3/ 6
20S FIRE ISLAND  1250            58 55  210/ 14/ 16 1024.5          3/ 5
GREAT SOUTH BAY  1230            61 64  220/ 12/ 16   N/A
23SW MTP         1250            57 52  220/ 14/ 16 1024.5          4/ 6
HUDSON CANYON    NOT AVBL
KINGS POINT      1200            68 55  230/  9/ 14 1023.0
CENTRAL LI SOUND 1200            59 54  200/ 10/ 12   N/A
EASTERN LI SOUND 1200            58     210/ 10/ 14   N/A
ROBBINS REEF     1200            68     230/ 12/ 15 1022.6
$$


>>>>>>>>>>>>>>>>>>>>>>>>>>>> KEY <<<<<<<<<<<<<<<<<<<<<<<<<<<
>                                                          <
>     SKY/WX - SKY CONDITION/PRESENT WEATHER               <
>     TMP    - TEMPERATURE IN FAHRENHEIT                   <
>     DP     - DEWPOINT IN FAHRENHEIT                      <
>     RH     - RELATIVE HUMIDITY IN PERCENT                <
>     WIND   - DIRECTION AND SPEED IN MPH                  <
>     PRES   - MEAN SEA LEVEL PRESSURE IN INCHES OF HG     <
>     WCI    - WIND CHILL INDEX                            <
>     VSB    - VISIBILITY IN MILES                         <
>     HX     - HEAT INDEX                                  <
>     TC     - TEMPERATURE IN CELSIUS                      <
>     VRB    - VARIABLE WIND DIRECTION                     <
>                                                          <
>>>>>>>>>>>>>>>>>>>>>>>>>>>> KEY <<<<<<<<<<<<<<<<<<<<<<<<<<<




USA.gov is the U.S. government's official web portal to all federal, state and local government web resources and services.